Wind_Speed
5 5 5 5 5 5 4 4 4 4 3 3 3 3 3 3 3 4 4 4 4 4 4 3 3 2 2 1 2 2 2 3 4 4 4 4 4 4 4 3 3 4 4 4 4 5 5 6 5
5 5 5 5 5 5 4 4 4 4 3 3 3 4 4 4 4 4 4 4 4 4 3 3 3 3 3 2 2 3 3 4 5 5 5 5 5 5 5 5 5 5 5 5 5 5 6 7 7
6 6 6 6 6 6 5 4 3 4 3 3 3 3 3 4 4 4 4 4 4 4 4 4 4 3 3 3 3 3 4 4 5 6 6 6 7 6 6 6 6 6 6 6 7 6 7 7 7
6 6 6 7 7 6 5 5 4 4 4 3 3 3 3 3 4 4 4 4 4 4 4 5 5 5 4 4 4 4 5 5 5 6 6 7 7 7 6 6 7 7 7 7 7 8 7 8 8
7 6 7 7 7 6 6 5 5 4 4 4 4 4 3 3 3 4 4 4 4 4 4 5 5 5 5 5 5 5 6 6 6 6 6 6 6 7 7 7 7 7 8 8 8 8 8 8 8
7 7 7 8 8 7 6 6 6 6 5 4 5 4 4 4 3 4 3 3 4 4 5 5 5 5 6 6 6 6 6 6 7 6 6 6 6 7 7 7 8 8 8 8 8 8 8 7 7
7 8 8 8 8 8 7 7 7 6 6 5 5 5 5 4 4 5 4 3 3 4 5 5 6 6 7 7 7 7 7 7 7 7 7 7 7 7 8 8 9 9 9 9 8 8 8 8 8
8 8 8 9 9 9 8 7 7 7 7 6 5 5 5 5 5 5 5 4 4 5 5 6 6 7 7 7 8 8 8 8 8 8 8 8 9 9 9 9 9 9 9 8 8 8 8 8 9
8 9 9 9 9 9 8 8 8 7 7 6 6 6 6 6 6 6 6 5 5 6 6 7 7 7 8 8 8 9 8 8 8 8 8 9 9 9 9 9 9 9 9 8 9 9 8 9 9
9 9 9 9 10 9 9 8 8 8 7 7 6 6 6 6 5 5 6 6 6 6 7 7 8 9 9 9 9 9 9 8 8 8 8 9 9 9 9 9 9 9 9 9 10 10 9 10 10
10 10 10 10 10 10 10 9 8 8 7 7 6 6 6 6 6 6 6 6 6 7 7 8 8 9 9 9 9 9 9 9 9 8 9 9 9 9 9 9 9 9 9 10 10 10 10 11 11
10 10 10 10 11 11 10 9 9 8 8 8 7 7 7 7 6 7 7 7 7 7 8 8 9 8 9 9 9 9 9 9 9 9 9 10 10 10 10 9 9 9 9 9 10 10 10 10 11
11 10 10 10 10 11 11 10 9 9 9 8 7 7 7 7 8 7 8 8 8 8 9 9 9 9 10 10 10 10 10 10 10 10 10 10 10 10 10 10 11 11 11 10 10 10 11 12 12
11 10 10 10 10 11 11 11 10 10 10 9 8 7 8 8 8 8 8 9 9 9 9 9 10 10 10 10 10 10 11 11 10 10 11 11 11 11 11 11 12 12 12 12 12 12 12 13 13
11 11 10 11 12 12 11 12 11 10 10 10 9 9 9 9 10 9 9 9 9 9 9 9 9 9 9 9 9 10 10 11 11 11 12 12 12 12 12 12 13 13 13 13 13 14 14 14 14
11 11 11 12 12 12 12 12 12 11 11 11 10 10 9 10 10 10 9 9 9 10 10 10 10 10 10 9 10 10 11 11 11 12 12 13 13 13 13 13 14 14 14 13 14 14 15 15 15
11 11 12 12 13 12 13 13 13 12 12 12 11 11 10 10 10 10 10 10 10 10 10 10 11 11 10 10 10 11 11 12 12 12 13 13 13 13 13 13 14 14 15 15 15 15 15 16 16
12 12 12 12 12 12 12 13 13 13 12 12 12 12 11 11 11 11 11 11 11 11 10 11 11 11 11 11 11 11 12 12 13 13 13 13 13 14 14 14 14 15 15 15 15 15 15 16 16
12 12 12 13 12 12 13 13 14 14 13 13 13 13 12 12 12 12 12 12 12 11 11 11 12 12 12 12 12 12 13 13 14 14 14 14 14 15 16 16 17 16 16 16 16 16 16 17 17
13 13 13 12 12 12 12 13 13 14 14 14 14 14 13 13 13 13 12 12 12 12 12 12 12 12 13 13 13 13 14 14 15 15 15 15 15 16 17 17 18 18 17 18 17 17 17 17 17
13 13 12 11 11 12 12 13 14 14 14 14 15 15 15 15 14 14 13 13 13 12 12 13 13 13 13 14 14 15 15 15 16 16 16 16 17 17 17 18 18 18 18 18 18 18 18 18 18
13 13 12 11 11 12 12 13 14 14 14 14 14 15 15 16 15 14 14 14 14 13 14 14 14 14 15 15 15 16 16 17 17 18 18 18 18 18 18 18 18 19 18 18 18 18 18 18 18
13 13 13 12 12 13 13 15 14 14 15 15 15 16 16 16 15 15 16 15 15 15 15 15 15 15 16 16 17 17 17 17 18 18 19 18 18 18 18 18 18 19 19 18 18 18 18 18 19
13 14 13 13 13 14 14 15 15 14 14 15 16 16 16 16 17 17 17 17 16 16 16 16 16 16 17 17 18 18 18 18 18 18 18 18 18 18 18 18 18 19 19 19 19 18 18 19 19
13 13 13 14 14 15 15 15 15 15 15 15 16 17 17 17 17 17 18 18 18 18 17 17 17 17 17 17 18 19 19 19 19 19 19 19 19 19 19 18 18 19 19 19 19 18 19 19 19
13 14 14 15 15 16 15 15 16 16 16 16 17 17 18 18 18 18 18 19 19 19 18 18 18 18 18 19 20 20 20 19 19 20 20 20 20 20 19 19 19 18 19 19 19 19 19 19 19
13 14 14 15 16 16 16 15 16 16 16 16 16 17 17 18 18 18 19 19 19 19 19 18 19 19 20 20 21 22 21 20 20 20 21 20 20 19 19 19 19 19 18 19 19 18 18 19 19
14 14 14 15 16 16 16 15 15 16 16 16 17 17 17 17 18 19 19 19 20 20 20 19 20 20 20 20 21 22 21 21 21 21 21 21 20 19 19 20 20 19 19 20 19 18 18 18 19
15 15 16 16 16 17 17 16 16 16 16 17 17 17 17 18 18 19 19 20 20 20 21 20 21 21 20 21 22 22 22 23 22 22 22 22 22 21 21 20 20 21 21 21 20 19 19 19 19
16 16 16 16 17 17 18 18 17 17 17 18 18 18 18 19 19 19 20 20 21 21 21 21 21 22 22 21 22 23 24 23 23 23 23 23 22 22 22 21 21 21 21 20 20 19 19 20 21
Wind_Direction
187 188 187 184 183 186 191 192 188 187 191 192 189 187 180 180 179 184 183 175 168 161 160 166 173 176 195 232 247 251 253 258 263 264 266 269 269 266 271 277 281 279 279 280 264 261 261 255 264
192 193 194 190 193 196 201 200 203 202 201 203 200 197 195 192 183 185 189 189 181 178 183 191 202 208 216 233 255 263 265 267 265 263 267 269 271 273 275 275 280 280 279 278 273 273 268 260 263
203 203 201 198 199 204 207 204 203 212 211 212 206 206 205 201 196 198 201 203 199 197 204 212 220 229 235 251 267 273 274 274 269 267 266 268 270 271 273 276 281 284 282 285 280 279 272 267 263
206 204 209 208 206 206 206 212 216 213 215 215 209 204 200 200 206 208 206 210 215 212 218 224 231 240 250 260 270 278 275 274 271 268 267 267 268 272 275 278 281 285 287 286 280 278 272 265 263
216 216 215 212 210 210 209 212 215 213 218 214 207 198 197 193 204 211 215 221 222 220 226 234 242 246 254 262 271 274 272 271 271 268 267 267 267 271 276 277 280 284 285 287 283 275 271 263 261
220 223 222 219 216 215 212 216 220 220 217 214 210 213 211 211 209 212 217 228 229 229 236 242 249 254 259 265 269 273 271 273 274 270 268 272 275 276 277 278 280 283 283 283 280 272 268 265 262
224 225 224 221 221 219 220 221 221 224 224 220 222 226 224 222 221 219 217 221 229 238 247 251 257 263 266 267 269 271 272 272 277 277 278 280 282 282 280 281 283 284 283 281 276 268 265 267 267
221 223 222 221 224 223 225 226 225 226 225 231 231 231 229 229 229 227 222 225 237 248 259 259 263 269 272 273 273 272 271 272 276 277 277 280 282 285 286 286 288 287 285 278 272 269 268 269 267
221 224 225 225 226 225 226 231 231 231 231 236 238 237 237 233 228 230 233 240 249 258 267 269 266 270 273 274 275 274 275 275 275 275 277 280 283 284 288 289 289 290 288 283 277 274 270 271 270
226 227 227 229 229 228 228 230 234 229 228 230 235 238 239 235 235 239 245 251 257 263 269 273 274 273 274 274 273 273 274 274 274 276 278 283 285 285 286 286 286 286 285 284 285 282 277 273 274
229 231 230 227 227 227 227 230 232 235 233 230 231 233 235 235 239 246 252 258 262 268 273 277 282 276 275 273 271 269 272 274 275 277 281 283 285 285 285 287 289 287 286 287 285 283 280 277 276
231 231 229 229 228 226 227 229 232 237 238 236 240 237 234 237 246 251 256 259 263 269 274 280 283 279 278 277 275 273 273 275 276 278 281 281 282 281 281 284 287 289 290 291 287 282 279 277 276
230 230 229 226 226 227 226 227 230 234 237 238 241 241 239 246 254 255 260 264 265 268 273 277 282 282 281 281 279 277 275 276 277 279 282 281 281 279 279 284 286 286 288 289 289 285 283 281 279
229 228 227 227 228 227 227 228 229 232 233 237 243 248 251 256 261 261 265 269 268 270 273 280 285 285 284 283 277 274 273 273 276 282 283 282 279 279 279 282 285 286 285 284 283 284 284 283 281
230 227 230 231 229 228 231 233 233 234 234 240 248 253 259 264 265 267 270 271 269 271 275 280 282 284 285 280 275 271 271 273 276 281 283 282 279 278 278 281 283 283 282 280 279 280 281 281 282
232 232 234 232 232 232 233 237 237 237 240 245 250 254 262 268 269 268 271 271 270 272 276 279 279 280 279 277 276 272 272 277 279 280 283 281 277 277 278 280 280 280 279 278 278 278 278 279 280
231 234 236 236 235 233 233 236 239 239 242 247 251 254 259 265 268 267 268 272 273 275 276 277 277 281 278 275 274 273 274 276 281 283 283 281 278 277 278 278 278 279 279 278 277 276 277 278 279
236 235 236 240 236 234 233 234 239 241 243 249 252 255 258 262 265 265 267 271 272 274 275 276 276 279 281 279 279 277 277 278 283 284 284 282 280 279 279 279 279 280 280 280 278 277 277 278 280
236 236 239 240 241 242 239 240 242 244 245 250 254 256 258 262 263 265 266 269 271 272 272 273 275 276 278 279 279 278 279 281 283 285 284 284 282 281 280 280 280 281 282 281 280 279 279 279 281
238 238 242 244 247 248 244 243 243 248 252 253 254 255 260 262 262 262 265 267 269 271 273 274 278 280 279 280 279 279 281 282 283 284 284 284 284 283 281 281 281 282 283 283 282 282 282 283 285
241 240 245 245 246 248 249 246 246 250 253 254 256 258 262 262 261 262 263 265 269 271 273 275 279 282 283 281 281 282 285 285 285 283 283 283 283 282 283 282 281 282 282 283 283 283 283 284 285
243 243 245 245 246 250 253 252 251 252 253 256 258 260 261 261 261 263 266 268 271 273 276 278 280 282 284 286 287 286 287 287 286 284 283 284 284 283 282 281 281 281 282 283 282 281 281 283 285
243 244 247 248 249 254 255 256 254 255 255 257 259 261 262 261 262 263 266 266 269 273 275 276 278 281 283 286 289 289 289 289 288 286 284 283 284 283 281 280 281 282 282 283 281 280 280 282 284
244 246 248 248 251 256 256 257 257 256 257 257 258 261 262 261 261 263 264 265 267 270 273 275 277 281 284 287 289 290 291 291 291 290 287 285 285 284 283 280 281 283 283 283 282 282 281 281 282
244 246 250 250 252 256 257 258 261 261 261 260 260 262 261 259 260 261 263 266 269 270 272 274 278 281 285 286 287 289 289 290 290 290 288 286 285 284 283 282 282 282 284 284 282 283 284 283 282
246 248 250 255 259 261 260 260 263 266 266 265 265 264 262 261 261 263 263 265 268 271 273 276 279 281 282 284 284 287 288 288 289 288 288 287 285 283 283 283 283 284 285 284 282 284 285 284 282
247 247 253 259 264 266 265 265 264 265 266 267 269 268 266 262 261 261 262 264 268 271 273 276 277 279 282 283 284 286 288 289 288 288 288 287 286 282 282 284 284 285 284 284 284 285 285 284 283
251 252 255 261 266 269 268 269 269 266 269 271 271 272 270 265 261 261 262 264 268 271 272 273 276 278 281 282 282 283 285 286 288 289 289 286 285 281 281 284 284 284 284 286 284 283 285 285 285
253 256 259 262 263 267 270 270 271 271 271 271 271 270 269 267 264 263 264 265 268 270 270 272 274 276 279 281 281 283 285 285 286 287 288 286 283 281 281 283 284 286 287 287 284 282 284 285 285
256 258 261 264 266 269 272 272 272 273 274 272 270 270 268 267 267 268 267 269 269 270 271 273 275 277 278 281 282 282 284 284 284 285 285 284 283 283 283 283 284 285 285 285 283 282 283 284 286
Height
5874 5874 5875 5877 5878 5878 5878 5878 5877 5877 5877 5877 5877 5877 5877 5878 5878 5881 5878 5877 5878 5877 5877 5877 5877 5877 5877 5876 5876 5876 5875 5875 5874 5874 5874 5874 5873 5873 5872 5872 5871 5870 5870 5869 5868 5868 5867 5867 5867
5873 5874 5876 5877 5877 5877 5878 5877 5877 5877 5877 5876 5876 5876 5876 5876 5877 5877 5877 5877 5877 5877 5877 5877 5877 5877 5876 5876 5875 5875 5875 5874 5874 5873 5873 5873 5872 5872 5871 5871 5870 5869 5869 5868 5868 5867 5867 5866 5866
5873 5874 5876 5876 5876 5877 5877 5877 5876 5876 5876 5876 5875 5875 5875 5876 5876 5876 5876 5876 5876 5876 5877 5877 5876 5876 5876 5875 5875 5874 5874 5874 5873 5873 5872 5872 5872 5871 5870 5870 5869 5868 5868 5867 5867 5866 5865 5865 5865
5872 5874 5875 5875 5875 5876 5876 5876 5875 5875 5875 5875 5875 5875 5874 5875 5875 5875 5875 5875 5876 5876 5876 5876 5876 5876 5875 5875 5874 5874 5873 5873 5872 5871 5871 5871 5870 5870 5869 5869 5868 5867 5866 5865 5865 5864 5863 5863 5863
5871 5872 5873 5873 5874 5875 5875 5875 5875 5875 5875 5875 5875 5874 5874 5875 5875 5875 5875 5875 5875 5875 5875 5875 5875 5875 5874 5874 5873 5873 5872 5872 5871 5870 5870 5870 5869 5869 5868 5867 5867 5866 5865 5864 5863 5863 5862 5861 5861
5870 5871 5872 5872 5873 5873 5874 5874 5874 5874 5874 5874 5874 5874 5874 5874 5874 5874 5874 5874 5874 5874 5874 5874 5874 5874 5873 5873 5872 5872 5871 5871 5870 5869 5869 5868 5868 5867 5866 5866 5865 5864 5864 5862 5861 5861 5860 5859 5859
5869 5870 5870 5871 5872 5872 5873 5873 5873 5873 5873 5873 5873 5873 5873 5873 5873 5873 5873 5874 5873 5873 5873 5873 5873 5872 5872 5872 5871 5871 5870 5869 5869 5868 5868 5867 5867 5866 5865 5864 5864 5863 5862 5861 5859 5859 5858 5858 5857
5867 5869 5868 5869 5870 5871 5872 5872 5872 5872 5872 5873 5873 5873 5872 5873 5873 5873 5873 5873 5873 5872 5872 5872 5871 5871 5871 5870 5870 5869 5869 5868 5867 5867 5866 5866 5865 5864 5864 5863 5862 5861 5860 5859 5858 5857 5856 5856 5856
5865 5868 5867 5868 5868 5869 5870 5871 5871 5871 5871 5871 5872 5872 5872 5872 5872 5872 5872 5872 5871 5871 5871 5870 5870 5869 5869 5869 5868 5868 5867 5866 5866 5865 5865 5864 5863 5863 5862 5861 5860 5859 5858 5857 5856 5855 5855 5854 5854
5863 5865 5865 5866 5867 5868 5868 5869 5870 5870 5870 5870 5870 5871 5870 5870 5870 5871 5871 5870 5870 5870 5869 5869 5868 5867 5867 5867 5866 5865 5865 5864 5864 5863 5863 5862 5861 5860 5860 5859 5858 5857 5856 5855 5854 5853 5853 5852 5852
5861 5862 5863 5864 5864 5865 5866 5867 5868 5869 5869 5869 5869 5869 5869 5869 5869 5869 5869 5869 5869 5868 5868 5867 5866 5865 5865 5864 5863 5863 5863 5862 5862 5862 5861 5860 5860 5859 5858 5857 5856 5855 5854 5853 5853 5852 5851 5850 5849
5859 5860 5861 5862 5862 5864 5865 5866 5866 5867 5868 5868 5868 5868 5868 5868 5868 5868 5868 5867 5867 5867 5866 5865 5864 5863 5862 5861 5861 5860 5860 5860 5860 5859 5859 5858 5858 5857 5856 5855 5854 5854 5852 5851 5851 5850 5849 5848 5847
5857 5858 5859 5860 5860 5861 5863 5864 5865 5865 5866 5866 5866 5866 5866 5866 5866 5866 5866 5866 5865 5865 5864 5863 5862 5861 5860 5858 5857 5857 5858 5858 5858 5857 5856 5856 5855 5855 5854 5853 5852 5851 5850 5849 5848 5847 5846 5845 5844
5855 5855 5856 5857 5858 5859 5861 5862 5863 5863 5864 5864 5865 5865 5865 5865 5865 5864 5864 5863 5863 5863 5862 5861 5860 5859 5857 5855 5854 5854 5855 5855 5855 5855 5854 5854 5853 5852 5851 5851 5850 5849 5848 5847 5846 5845 5844 5843 5841
5852 5854 5855 5855 5856 5857 5859 5860 5860 5861 5862 5862 5862 5863 5863 5863 5862 5862 5862 5861 5861 5860 5860 5859 5858 5857 5855 5853 5852 5852 5853 5853 5853 5853 5852 5851 5850 5849 5849 5848 5847 5846 5845 5844 5843 5841 5840 5839 5838
5850 5852 5853 5853 5854 5855 5858 5858 5858 5858 5859 5860 5860 5860 5860 5860 5860 5860 5859 5859 5859 5858 5858 5857 5856 5855 5853 5852 5851 5851 5851 5851 5851 5850 5849 5848 5847 5846 5846 5845 5844 5842 5841 5840 5839 5838 5837 5836 5835
5848 5849 5850 5851 5851 5852 5854 5855 5855 5855 5856 5857 5857 5858 5858 5858 5857 5857 5857 5857 5856 5856 5856 5855 5854 5853 5852 5851 5850 5850 5849 5849 5849 5848 5847 5845 5844 5843 5842 5841 5840 5839 5838 5837 5836 5835 5833 5832 5831
5846 5846 5847 5848 5848 5849 5850 5852 5852 5853 5854 5854 5855 5855 5855 5855 5855 5854 5854 5854 5854 5853 5853 5852 5852 5851 5850 5849 5848 5848 5847 5847 5846 5845 5843 5842 5841 5840 5839 5838 5836 5835 5834 5833 5832 5831 5829 5828 5827
5842 5843 5844 5845 5845 5847 5848 5849 5849 5850 5851 5851 5852 5852 5852 5852 5852 5852 5852 5851 5851 5851 5850 5850 5849 5848 5848 5847 5846 5845 5844 5844 5842 5841 5840 5839 5838 5836 5835 5834 5832 5831 5830 5829 5828 5826 5825 5824 5823
5839 5841 5842 5842 5843 5844 5844 5845 5846 5846 5847 5848 5849 5849 5849 5849 5849 5849 5849 5849 5848 5848 5848 5847 5847 5846 5845 5844 5843 5842 5841 5840 5839 5838 5836 5835 5834 5832 5831 5830 5828 5827 5826 5825 5824 5822 5821 5820 5818
5837 5838 5839 5840 5840 5840 5842 5843 5843 5843 5844 5845 5845 5845 5846 5846 5846 5846 5846 5846 5845 5845 5844 5844 5843 5843 5842 5841 5840 5839 5838 5837 5835 5834 5832 5831 5829 5828 5826 5825 5824 5823 5822 5820 5819 5818 5816 5815 5814
5834 5835 5836 5836 5837 5838 5839 5839 5840 5840 5841 5841 5841 5842 5842 5842 5842 5842 5842 5842 5842 5841 5841 5840 5840 5839 5838 5837 5836 5835 5834 5832 5831 5829 5828 5826 5825 5823 5822 5820 5819 5818 5817 5815 5814 5813 5811 5810 5809
5831 5832 5833 5833 5834 5835 5836 5836 5837 5837 5837 5837 5837 5837 5838 5838 5838 5838 5838 5838 5838 5838 5837 5837 5836 5835 5834 5833 5832 5831 5829 5828 5826 5824 5823 5821 5820 5818 5817 5815 5814 5813 5811 5810 5809 5807 5807 5805 5804
5827 5829 5830 5830 5831 5832 5833 5833 5833 5833 5833 5833 5833 5833 5833 5833 5834 5834 5834 5834 5834 5834 5833 5833 5832 5831 5830 5829 5828 5826 5825 5823 5821 5819 5818 5816 5815 5814 5812 5810 5809 5808 5806 5805 5804 5802 5801 5800 5799
5824 5826 5826 5827 5827 5828 5828 5828 5829 5829 5829 5829 5829 5829 5828 5828 5829 5829 5829 5829 5829 5829 5828 5828 5828 5827 5825 5824 5823 5822 5820 5818 5817 5815 5813 5812 5810 5809 5807 5805 5804 5803 5801 5800 5798 5797 5796 5795 5793
5821 5822 5824 5824 5824 5824 5824 5824 5825 5824 5824 5824 5824 5823 5823 5823 5823 5824 5824 5824 5824 5824 5824 5823 5823 5822 5821 5820 5818 5817 5815 5814 5812 5810 5808 5807 5805 5804 5802 5800 5799 5797 5796 5795 5793 5792 5790 5789 5788
5817 5818 5819 5820 5819 5819 5819 5820 5820 5819 5819 5819 5819 5818 5818 5818 5818 5818 5818 5818 5818 5818 5818 5818 5817 5817 5816 5814 5813 5812 5810 5808 5806 5805 5803 5802 5800 5798 5797 5796 5794 5792 5791 5790 5788 5786 5785 5783 5782
5814 5814 5815 5815 5815 5815 5815 5815 5815 5814 5814 5814 5814 5813 5813 5812 5812 5812 5812 5813 5813 5813 5812 5812 5812 5811 5810 5809 5807 5806 5805 5803 5801 5800 5798 5796 5795 5793 5792 5791 5789 5787 5786 5784 5783 5781 5780 5778 5777
5810 5810 5810 5810 5811 5811 5811 5813 5810 5810 5809 5809 5808 5808 5807 5807 5806 5806 5807 5807 5807 5806 5806 5806 5805 5805 5804 5803 5801 5800 5799 5797 5796 5794 5793 5791 5789 5788 5786 5785 5783 5782 5780 5779 5777 5776 5775 5773 5771
5805 5805 5806 5806 5806 5806 5805 5809 5805 5805 5804 5803 5803 5802 5802 5801 5801 5801 5801 5801 5801 5800 5800 5800 5799 5798 5798 5797 5795 5794 5793 5791 5790 5788 5787 5785 5784 5782 5781 5779 5778 5776 5775 5773 5772 5770 5769 5767 5765